Location: Moscow Pond
(43.6842°N, 73.2366°W)
Time: 20:24:56
(UTC+00:00)

ATLAS 5 CENTAUR R/B - Pass Details

Date: 08 November 2025
Orbit: 373 x 1090 km, 63.3° (Epoch: 04 December)

Event Time Altitude Azimuth Distance (km) Brightness Sun altitude
Rises 00:42:34 0° 322° (NW) 2,784 5.5 -34.0°
Reaches altitude 10° 00:44:36 10° 321° (NW) 1,983 4.6 -34.3°
Enters shadow 00:45:33 17° 321° (NW) 1,619 4.1 -34.5°
